Погода в Харстаде

Норвегия     68°47′57″N   16°32′38″E
темп.,
°C
ветер,
м/с
пор.,
м/с
влажн.,
%
обл.,
%
осадки,
мм/ч
давл.,
гПа
погр.,
м
12 мая, ср
ср1223:00+2вюв119789 0.1 1016123
02:00+2вюв119790 0.1 1016138
05:00+3св2392100 0.1 1015163
08:00+4всв128349 0.3 1014151
11:00+8ююв237791 0.0 1013141
14:00+9ю3572100 0.0 1013367
17:00+8юз4575100 0.0 1013332
20:00+6ююз4589100 0.0 1014132
13 мая, чт
чт1323:00+5ююз3493100 0.0 101589
02:00+5з1294100 0.0 101546
05:00+5с3597100 0.1 1015223
08:00+4ссз3498100 0.3 1015281
11:00+3ссз4596100 0.1 1017421
14:00+3ссз3493100 0.2 1018428
17:00+4с3388100 0.0 1018426
20:00+3ссв4589100 0.2 1018526
14 мая, пт
пт1423:00+3ссв4588100 0.1 1019477
02:00+2ссв458294 0.1 1019529
05:00+2ссв458099 0.0 1019511
08:00+2ссв447893 0.0 1018554
11:00+4ссв447591 0.0 1018646
14:00+5ссв4573100 0.0 1017630
17:00+5ссв3470100 0.0 1016503
20:00+5св3472100 0.0 1016411
15 мая, сб
сб1523:00+4св347697 0.0 1015239
02:00+4св347695 0.0 1015221
05:00+4св337351 0.0 1014277
08:00+4св336755 0.0 1014398
11:00+5св336543 0.0 1014483
14:00+6св3465100 0.0 1014473
17:00+6ссв3465100 0.0 1013419
20:00+6ссв346852 0.0 1013312
16 мая, вс
вс1623:00+4св33765 0.0 101375
02:00+4в22785 0.0 101340
05:00+4в227233 0.0 1013121
08:00+5в226565 0.0 1013227
11:00+7в3361100 0.0 1013299
14:00+8в335953 0.0 1012402
17:00+9в236082 0.0 1012402
20:00+9в236389 0.0 1012221